Regional Weather Roundup
Issued by NWS Newport/Morehead, NC

Current Version | Previous Version | Graphics & Text | Print | Product List | Glossary Off
Versions: 1 2 3 4 5 6 7 8 9 10 11 12 13 14 15 16 17 18 19 20 21 22 23 24 25 26 27 28 29 30 31 32 33 34 35 36 37 38 39 40 41 42 43 44 45 46 47 48 49 50
000 ASUS42 KMHX 191525 RWRMHX WEATHER ROUNDUP FOR EASTERN NORTH CAROLINA NATIONAL WEATHER SERVICE NEWPORT/MOREHEAD CITY NC 1100 AM EDT THU APR 19 2018 NOTE: "FAIR" INDICATES FEW OR NO CLOUDS BELOW 12,000 FEET WITH NO SIGNIFICANT WEATHER AND/OR OBSTRUCTIONS TO VISIBILITY NCZ015>017-031-032-045>047-102-103-191600- NORTH COAST CITY SKY/WX TMP DP RH WIND PRES REMARKS EDENTON FAIR 80 56 45 W12G21 29.74S ELIZABETH CITY FAIR 77 58 51 NW13 29.73R KITTY HAWK FAIR 75 54 47 W6G17 29.73R MANTEO FAIR 74 55 52 W14G20 29.74R $$ NCZ045>047-081-094-103-104-191600- CENTRAL COAST CITY SKY/WX TMP DP RH WIND PRES REMARKS FRISCO FAIR 69 59 70 SW20G31 29.78R $$ NCZ095-097-098-100-101-191600- SOUTHERN COAST CITY SKY/WX TMP DP RH WIND PRES REMARKS BEAUFORT FAIR 68 59 73 SW23 29.80S CEDAR ISLAND NOT AVBL JACKSONVILLE FAIR 77 56 48 SW17G26 29.79S PINEY ISLAND NOT AVBL WILMINGTON FAIR 79 56 45 W21G26 29.82S $$ NCZ011>013-027>030-043-044-078>080-089-090>093-098-191600- COASTAL PLAIN CITY SKY/WX TMP DP RH WIND PRES REMARKS AHOSKIE PTSUNNY 69 48 47 N7 29.77R CLINTON FAIR 77 58 52 SW14G22 29.80S ELIZABETHTOWN FAIR 77 57 49 MISG 29.82S GOLDSBORO FAIR 77 56 46 W20G25 29.77R GREENVILLE FAIR 77 52 41 W14G21 29.79R HAVELOCK NOT AVBL KENANSVILLE FAIR 77 57 50 SW18G25 29.79S KINSTON FAIR 75 54 46 SW17G28 29.77 NEW BERN FAIR 76 56 49 SW12G23 29.78S RICHLANDS FAIR 78 57 48 SW15G26 29.80R ROCKY MOUNT FAIR 77 53 43 W15G22 29.76R WASHINGTON FAIR 78 55 44 W12G21 29.76R WHITEVILLE FAIR 76 57 52 SW14G22 29.84R $$ AMZ130-135-150-152-154-156-158-170-250-252-270-ANZ085-086-088-633-658-670-191600- MARINE OBSERVATIONS STATION/POSITION TIME TEMP WIND PRES WAVE SWELL AIR SEA DIR/SP/G HT/PER HT/PER (UTC) (F) (DEG/KT/KT) (MB) (FT/S) (FT/S) CHESAPEAKE LIGHT NOT AVBL 64 E VA BEACH 1450 53 51 330/ 10/ 14 1007.3 5/ 8 5/ 8 DUCK 1500 48 340/ 7/ 9 1007.2 2 E DUCK 1500 49 N/A 2/14 2/14 OREGON INLET 1454 64 62 200/ 18/ 19 1007.0 13E OREGON INLT 1448 52 N/A 5/ 8 3/ 8 HATTERAS CG 1454 67 62 230/ 17/ 24 1008.3 DIAMOND BUOY 1510 69 69 230/ 25/ 31 1009.0 CAPE LOOKOUT 1500 220/ 18/ 23 1010.0 BEAUFORT LAB 1454 66 61 220/ 12/ 19 1009.5 30 SE NEW RVR IN 1508 67 66 220/ 19/ 25 1010.4 30 SE NEW RVR IN 1500 65 N/A 8/ 7 27 SE WRIGHTSVLE 1508 65 66 220/ 23/ 33 1011.2 5 SE WRIGHTSVLE NOT AVBL 225 S CAPE HAT 1510 72 72 230/ 21/ 25 1017.0 41 SE CHARLESTON 1510 67 68 240/ 19/ 23 1014.5 $$

USA.gov is the U.S. government's official web portal to all federal, state and local government web resources and services.